Startseite
Über Mich
AHP4
Galerie
Sehschlangen
Tourenbuch
Bookmarks
Elektronik
Bewertung
Geschichten
[Tagesmessung] [Jahreswerte] [Information]

Messwerte vom 27.06.2022

Die letzten Messwerte von 23:58:47 Uhr:
KategorieMesswert
Temperatur [°C]16
Luftdruck [mBar]1002
Sonneneinstrahlung0
Wind [km/h]0 aus Südost
Niederschlag [l/m²]0
rel.Luftfeucht.94.2%
CO2 [ppm]758

Diagramme
Messwerte vom 27.06.2022
Tagesaggregation
KategorieMinimumMaximumSchnittSumme
Temperatur [°C]163522.4208
Luftdruck [mBar]9961002998.4708
Sonneneinstrahlung248139.8250
Wind [km/h]10
rF [%]39.496.677.98
Niederschlag [l/m²]0
CO2 [ppm]416826603.0
Einordnung alsVegetationstag
Sommertag
Heißer Tag

Messungen an benachbarten Tagen: Zur Jahresaggregation 2022
Tabelle aller Messwerte
UhrzeitTemperatur [°C]Luftdruck [mBar]SonneWind [km/h]RichtungRegen [l/m²]rF [%]CO2 [ppm]
00:01:47 21 998 0 3 N 0 76.3 632
00:04:46 21 998 0 2 NO 0 77.1 635
00:07:46 21 998 0 0 NO 0 77.3 633
00:10:47 21 998 0 3 N 0 77.6 633
00:13:47 21 998 0 0 W 0 77.9 638
00:16:47 21 998 0 1 N 0 78.2 638
00:19:44 21 998 0 1 N 0 78.4 635
00:22:46 21 998 0 3 N 0 78.4 635
00:25:49 21 998 0 2 NO 0 78.8 640
00:28:49 21 998 0 2 NO 0 79.7 636
00:31:47 21 998 0 1 NO 0 80.2 638
00:34:46 21 998 0 0 N 0 79.8 637
00:37:48 20 998 0 0 N 0 79.7 646
00:40:48 20 998 0 0 NO 0 79.6 649
00:43:47 20 998 0 2 SO 0 80 653
00:46:46 20 998 0 0 SO 0 80.4 649
00:49:48 20 997 0 0 SO 0 81.8 661
00:52:48 20 998 0 2 O 0 82.5 668
00:55:46 20 997 0 2 N 0 82.7 670
00:58:45 20 998 0 1 O 0 84.2 668
01:01:47 20 998 0 3 N 0 85 679
01:04:47 20 997 0 3 NO 0 85.2 682
01:07:45 20 997 0 4 N 0 85.7 677
01:10:49 20 998 0 4 NO 0 85.9 664
01:13:44 20 997 0 4 N 0 86.3 659
01:16:46 19 998 0 5 NO 0 86.5 669
01:19:46 19 997 0 1 O 0 86.8 677
01:22:48 19 998 0 2 NO 0 86.9 674
01:25:47 19 997 0 3 NO 0 87.1 676
01:28:48 19 997 0 4 N 0 87.6 679
01:31:48 19 998 0 5 NO 0 87.7 685
01:34:52 19 998 0 2 NO 0 87.6 689
01:37:47 19 998 0 2 N 0 87.6 685
01:40:46 19 998 0 0 NO 0 88 682
01:43:48 19 997 0 0 NO 0 87.7 685
01:46:47 19 998 0 0 NO 0 87.7 690
01:49:50 19 998 0 0 NO 0 87.6 695
01:52:48 19 997 0 0 N 0 87.9 703
01:55:48 19 998 0 0 N 0 87.9 705
01:58:45 19 997 0 0 N 0 87.8 717
02:01:46 19 997 0 0 N 0 87.6 719
02:04:45 18 998 0 0 N 0 88 715
02:07:48 18 998 0 0 N 0 88.3 718
02:10:47 18 997 0 0 N 0 88.5 714
02:13:46 18 997 0 0 O 0 88.3 716
02:16:48 18 997 0 0 O 0 88.4 713
02:19:46 18 997 0 0 O 0 88.4 726
02:22:48 18 998 0 0 O 0 88.5 728
02:25:49 18 997 0 0 NO 0 89.8 744
02:28:47 18 998 0 0 N 0 90.4 733
02:31:47 18 998 0 0 O 0 90.4 728
02:34:46 18 997 0 0 N 0 90.7 720
02:37:47 18 997 0 1 N 0 91.4 725
02:40:46 18 997 0 0 N 0 91.9 731
02:43:48 18 997 0 0 N 0 92 727
02:46:47 18 997 0 0 N 0 91.7 726
02:49:48 18 997 0 0 NO 0 91.8 718
02:52:48 18 997 0 0 NO 0 93.2 725
02:55:49 18 997 0 1 NO 0 93.5 730
02:58:47 18 997 0 0 NO 0 93.4 730
03:01:47 18 996 0 0 NO 0 92.8 743
03:04:48 18 997 0 0 NO 0 92.5 737
03:07:47 18 997 0 0 NO 0 92 739
03:10:46 18 997 0 0 SO 0 91.7 738
03:13:44 18 997 0 2 SO 0 91.7 733
03:16:48 18 997 0 0 SO 0 92.1 739
03:19:46 18 997 0 0 SO 0 92.3 738
03:22:46 18 997 0 0 SO 0 92.8 738
03:25:47 18 997 0 0 SO 0 93.4 737
03:28:49 18 998 0 0 SO 0 93.3 741
03:31:47 18 998 0 0 SO 0 93.4 746
03:34:46 18 997 0 0 O 0 93.8 747
03:37:44 18 997 0 1 N 0 93.8 751
03:40:44 18 998 0 0 N 0 94.3 752
03:43:48 18 997 0 0 N 0 93.9 749
03:46:46 18 997 0 0 N 0 93.4 748
03:49:48 18 998 0 0 N 0 93.1 741
03:52:47 18 997 0 0 N 0 93.6 749
03:55:48 18 997 0 0 N 0 93.9 755
03:58:46 17 997 0 0 N 0 94.2 759
04:01:47 17 997 0 0 N 0 94.2 759
04:04:47 17 997 0 0 N 0 94.9 747
04:07:47 17 997 0 0 N 0 94.8 742
04:10:48 17 997 0 0 N 0 94.6 743
04:13:48 17 998 0 3 NW 0 94.7 755
04:16:49 17 996 0 1 NW 0 95.3 769
04:19:47 17 998 0 0 NW 0 95.3 776
04:22:48 17 998 0 0 NW 0 95.5 775
04:25:48 17 998 3 0 NW 0 95.6 770
04:28:50 17 998 5 0 NW 0 95.7 759
04:31:47 17 998 7 0 NW 0 95.9 764
04:34:50 17 998 9 0 NW 0 96.3 768
04:37:49 17 998 13 0 NW 0 96.4 770
04:40:48 17 998 18 0 NW 0 96.6 766
04:43:47 17 998 24 0 NW 0 96.6 767
04:46:48 17 998 31 0 NW 0 96.5 770
04:49:48 17 997 38 0 NW 0 96.4 773
04:52:49 17 998 47 0 NW 0 96.2 774
04:55:49 17 998 55 0 NW 0 96.5 770
04:58:49 17 998 63 0 NW 0 96.5 766
05:01:49 17 998 72 0 NW 0 96.5 769
05:04:49 17 997 80 0 NW 0 96.3 773
05:07:49 17 997 89 0 NW 0 96.1 779
05:10:51 17 997 97 0 NW 0 95.9 780
05:13:47 17 997 103 0 NW 0 96 777
05:16:50 17 998 108 0 NW 0 96.2 774
05:19:48 17 997 112 0 NW 0 96.6 774
05:22:49 17 998 117 0 NW 0 96.6 779
05:25:48 17 998 122 0 NW 0 96.6 784
05:28:50 17 998 127 0 NW 0 96.6 788
05:31:49 17 998 134 0 NW 0 96.6 784
05:34:52 17 998 142 0 NW 0 96.6 782
05:37:48 17 998 150 0 NW 0 96.6 781
05:40:52 17 998 156 0 NW 0 96.6 779
05:43:49 17 997 163 0 NW 0 96.6 780
05:46:48 17 997 169 0 NW 0 96.6 791
05:49:50 17 998 172 0 NW 0 96.6 784
05:52:50 17 997 175 0 NW 0 96.6 785
05:55:50 17 998 178 0 NW 0 96.6 783
05:58:48 17 998 180 0 NW 0 96.6 791
06:01:49 18 998 181 0 NW 0 96.6 802
06:04:49 18 997 182 0 NW 0 96.6 803
06:07:52 18 998 183 0 NW 0 96.6 799
06:10:50 18 997 183 0 NW 0 96.6 790
06:13:48 18 998 182 0 NW 0 96.6 791
06:16:47 18 997 177 0 NW 0 96.5 796
06:19:50 18 997 174 0 NW 0 96.3 803
06:22:49 18 998 174 0 NW 0 96 803
06:25:51 18 997 176 0 S 0 95.6 809
06:28:47 18 998 179 0 S 0 95.5 811
06:31:48 18 997 183 0 S 0 95.4 808
06:34:49 18 998 184 0 S 0 95.4 808
06:37:49 18 998 185 0 S 0 95.4 809
06:40:49 18 998 187 0 S 0 95.3 810
06:43:50 18 998 189 0 S 0 95.4 814
06:46:49 18 998 190 0 S 0 95.5 809
06:49:53 18 998 192 0 S 0 95.5 820
06:52:49 19 998 194 0 S 0 95.3 820
06:55:50 19 998 199 0 SW 0 95.3 823
06:58:51 19 998 199 0 SW 0 95.5 816
07:01:49 19 998 200 0 N 0 95.2 809
07:04:49 19 998 202 2 SO 0 94.6 812
07:07:50 19 998 201 6 NW 0 93.9 816
07:10:47 19 997 202 8 N 0 93.1 817
07:13:49 19 997 206 4 0 93 822
07:16:48 20 997 206 4 NW 0 92.8 819
07:19:51 20 997 203 1 NW 0 91.8 826
07:22:48 20 998 147 2 W 0 91.1 808
07:25:48 20 997 150 2 0 90.6 687
07:28:49 20 997 151 5 SW 0 90.4 548
07:31:51 20 997 201 1 NW 0 90 443
07:34:50 20 997 202 6 NW 0 90.3 416
07:37:47 20 998 202 5 N 0 90.3 422
07:40:48 20 997 203 3 NW 0 90.3 439
07:43:48 20 998 204 0 NW 0 90.7 459
07:46:46 20 997 206 4 0 90.2 475
07:49:50 20 997 207 10 N 0 89.3 492
07:52:50 20 998 207 2 N 0 89 497
07:55:48 21 998 208 4 N 0 89 500
07:58:48 21 998 208 0 NW 0 89 500
08:01:50 21 997 208 2 O 0 87.8 490
08:04:48 21 997 207 2 W 0 87.2 492
08:07:48 21 997 209 2 0 86.8 492
08:10:51 21 998 210 2 NW 0 86.9 486
08:13:48 21 998 210 3 NO 0 86.3 510
08:16:46 21 997 210 2 N 0 85.3 510
08:19:48 21 997 209 7 N 0 85.2 506
08:22:48 21 998 207 4 W 0 85 503
08:25:47 21 998 206 3 N 0 85.1 507
08:28:48 21 997 206 1 N 0 85.7 500
08:31:48 21 997 204 6 N 0 86.2 496
08:34:47 21 997 204 3 O 0 85.9 498
08:37:49 21 998 204 3 N 0 86.2 501
08:40:49 21 997 204 2 N 0 85.9 501
08:43:48 21 997 203 2 O 0 85.8 501
08:46:49 21 998 203 2 NO 0 86.1 495
08:49:48 21 997 204 1 O 0 86.1 501
08:52:48 21 997 206 1 NO 0 85.6 501
08:55:51 21 998 209 1 NO 0 85.6 497
08:58:47 21 997 212 0 N 0 85.9 489
09:01:51 21 998 215 0 N 0 86.3 492
09:04:49 21 997 216 0 SO 0 86.3 488
09:07:47 22 998 216 1 SO 0 85.8 491
09:10:50 22 998 217 1 NW 0 84.5 492
09:13:51 22 998 218 0 NW 0 83.7 486
09:16:50 22 998 218 3 S 0 83.8 488
09:19:48 22 998 219 0 W 0 83.6 492
09:22:49 22 997 221 0 S 0 83.6 497
09:25:47 22 998 223 1 S 0 82.1 492
09:28:48 23 997 223 0 S 0 81.9 485
09:31:48 23 998 223 0 SW 0 81.4 491
09:34:48 23 998 222 0 S 0 80.3 501
09:37:51 24 998 222 3 SW 0 79.2 495
09:40:48 24 997 221 1 S 0 78.4 488
09:43:51 24 998 221 6 NW 0 77.3 487
09:46:47 24 997 219 0 SW 0 77.6 494
09:49:51 24 998 218 0 SW 0 77.1 495
09:52:50 24 997 218 2 NO 0 75.9 495
09:55:50 23 997 219 3 NW 0 75.2 498
09:58:52 23 997 222 1 NW 0 77 503
10:01:50 23 998 224 1 NW 0 78.3 495
10:04:49 23 997 225 0 SW 0 78.9 489
10:07:48 24 997 226 0 S 0 78.5 495
10:10:49 24 997 226 0 S 0 76 490
10:13:50 24 998 226 0 SW 0 75.6 490
10:16:48 24 998 226 1 NW 0 75.1 488
10:19:49 24 997 225 2 SO 0 76.2 486
10:22:48 25 998 224 2 SW 0 75.8 489
10:25:49 25 997 223 2 SW 0 74.9 489
10:28:49 25 998 222 2 SW 0 74.5 489
10:31:51 25 997 220 1 SO 0 73.7 486
10:34:48 24 997 218 3 NW 0 73.4 488
10:37:49 24 998 215 0 N 0 75.5 486
10:40:47 24 998 208 2 N 0 75.8 491
10:43:50 24 998 201 1 NW 0 76 498
10:46:47 24 996 198 4 NW 0 76.1 497
10:49:48 24 997 201 0 NW 0 76.4 498
10:52:46 24 998 206 1 W 0 76.3 489
10:55:49 24 997 207 1 SO 0 77.4 491
10:58:47 24 997 209 6 SW 0 76.8 491
11:01:47 24 998 209 4 SW 0 75.9 497
11:04:49 24 998 211 0 SW 0 75.1 489
11:07:48 24 998 212 3 S 0 74.7 486
11:10:48 24 998 213 0 NW 0 75 485
11:13:49 24 998 213 0 SO 0 76.5 482
11:16:48 25 998 211 3 SW 0 75.2 492
11:19:50 25 998 211 2 NW 0 74.1 498
11:22:45 25 997 212 7 W 0 74.3 494
11:25:48 25 998 213 2 S 0 74.5 489
11:28:49 25 998 214 3 SW 0 74.2 489
11:31:48 25 998 216 1 W 0 73.1 483
11:34:47 26 998 219 4 SW 0 73.5 483
11:37:48 26 998 217 2 N 0 73.4 480
11:40:48 27 998 216 3 S 0 72.9 489
11:43:49 27 998 218 4 N 0 68.4 489
11:46:49 26 998 219 1 W 0 68.2 491
11:49:49 27 998 222 1 SW 0 68.9 488
11:52:49 27 998 228 2 NW 0 69.1 483
11:55:32 26 998 225 4 NW 0 61.2 489
11:58:47 27 998 225 2 N 0 63.9 485
12:01:48 27 998 225 0 W 0 65.2 492
12:04:47 28 998 223 0 O 0 64.4 486
12:07:51 28 998 223 2 NW 0 63.8 489
12:10:52 29 998 227 0 SW 0 63.5 483
12:13:48 29 998 227 2 N 0 63.2 492
12:16:49 29 997 221 3 NO 0 56.6 488
12:19:46 28 997 223 2 W 0 61.4 483
12:22:51 29 998 226 0 SO 0 61.7 489
12:25:48 29 998 226 1 SW 0 61.9 485
12:28:31 28 997 226 3 W 0 49.6 490
12:31:49 30 998 228 9 SW 0 55.3 486
12:34:51 30 998 227 5 SW 0 53.9 486
12:37:49 29 998 224 2 NW 0 54.1 483
12:40:48 29 998 219 1 S 0 56.5 485
12:43:48 28 998 217 0 W 0 57.6 486
12:46:49 28 998 223 0 NW 0 59.6 486
12:49:50 28 998 222 2 S 0 61.2 487
12:52:48 28 998 216 3 S 0 62.2 483
12:55:50 28 998 213 2 SO 0 62.5 483
12:58:51 28 998 226 0 SW 0 62.2 486
13:01:48 28 998 226 0 N 0 62.2 483
13:04:48 28 998 227 1 N 0 62 485
13:07:48 28 998 226 0 SO 0 61.6 485
13:10:51 28 998 222 0 W 0 60.7 486
13:13:48 28 998 229 1 NO 0 60.5 483
13:16:50 29 998 226 3 NW 0 61 485
13:19:33 27 998 228 3 SO 0 53.5 486
13:22:49 31 998 227 8 SO 0 53.7 489
13:25:48 31 998 230 2 NW 0 53.3 486
13:28:47 30 998 229 4 W 0 53.8 477
13:31:48 29 998 230 3 SO 0 55.1 474
13:34:48 29 997 229 4 N 0 56.4 480
13:37:32 29 997 230 6 SW 0 46.3 482
13:40:48 29 998 229 10 N 0 53.4 483
13:43:49 29 998 231 6 SW 0 54 480
13:46:46 30 998 230 1 NO 0 55 473
13:49:48 30 997 230 4 NW 0 53.3 471
13:52:49 30 998 232 0 NW 0 52.9 471
13:55:46 30 998 234 0 W 0 54 472
13:58:47 30 998 229 2 W 0 53.6 477
14:01:47 30 998 222 0 W 0 53.2 471
14:04:49 30 998 216 0 W 0 53.5 472
14:07:47 30 998 215 1 SW 0 53.5 471
14:10:48 29 998 216 0 NW 0 53.6 474
14:13:48 29 998 217 0 NW 0 54.9 475
14:16:48 29 998 219 0 W 0 56.6 478
14:19:48 29 997 223 1 W 0 56.8 478
14:22:48 29 997 228 3 NW 0 57.2 480
14:25:47 29 997 229 2 0 57.1 480
14:28:47 29 997 233 0 SW 0 56.5 477
14:31:48 30 998 233 4 NW 0 57.2 471
14:34:49 30 997 236 0 SO 0 56.2 468
14:37:49 30 998 239 1 SW 0 54.5 468
14:40:47 30 998 230 2 O 0 51.7 474
14:43:50 30 998 226 0 SO 0 52.2 480
14:46:48 30 998 223 1 W 0 53.1 480
14:49:47 30 998 220 0 S 0 54.2 477
14:52:47 29 998 220 2 SO 0 54.7 477
14:55:48 29 998 218 1 N 0 54.5 473
14:58:48 28 998 220 7 SW 0 55.5 465
15:01:49 28 998 219 0 SW 0 56.2 465
15:04:47 28 998 215 0 SW 0 56.7 466
15:07:49 27 998 217 3 SO 0 59.2 480
15:10:49 27 998 219 0 SW 0 59.6 471
15:13:50 27 998 221 0 SW 0 60.2 471
15:16:50 27 998 225 0 SO 0 60.5 466
15:19:49 27 998 230 0 W 0 60.1 468
15:22:49 28 998 239 0 S 0 60.4 471
15:25:49 28 998 238 2 S 0 60.8 468
15:28:48 29 998 237 0 O 0 59.6 470
15:31:48 29 998 237 0 SW 0 58.5 470
15:34:49 30 998 236 1 SW 0 57.6 466
15:37:48 30 998 235 3 SO 0 56.4 465
15:40:49 29 998 227 0 SW 0 55.1 465
15:43:47 29 998 223 2 S 0 54.9 466
15:46:48 29 998 224 2 SW 0 54.8 465
15:49:46 28 998 225 1 S 0 55.2 471
15:52:48 28 998 226 1 SO 0 56.6 474
15:55:49 28 998 225 2 NW 0 57.7 468
15:58:50 28 998 229 2 NW 0 57.8 462
16:01:47 28 997 238 0 S 0 57.2 463
16:04:48 29 998 240 4 NW 0 57.5 459
16:07:50 30 998 242 0 S 0 55.6 460
16:10:49 30 998 236 2 S 0 55.4 463
16:13:48 31 998 238 1 S 0 55.2 468
16:16:51 31 997 241 1 NW 0 54.3 468
16:19:47 31 998 241 5 SW 0 51.5 474
16:22:48 31 998 243 1 W 0 50.5 465
16:25:46 31 998 240 2 S 0 50.1 466
16:28:48 31 998 241 0 S 0 50.7 456
16:31:48 31 998 241 2 S 0 51.6 460
16:34:47 31 998 240 3 W 0 50.7 459
16:37:46 31 998 240 2 S 0 49 462
16:40:47 31 998 239 0 S 0 49.5 465
16:43:48 31 998 235 6 SO 0 50.2 460
16:46:50 30 998 238 2 SO 0 52.4 460
16:49:47 30 998 239 0 SW 0 52.7 456
16:52:48 30 998 240 1 SO 0 51.6 454
16:55:48 31 998 237 1 S 0 50.4 456
16:58:48 31 998 241 1 S 0 49 453
17:01:47 31 998 245 3 SO 0 48.4 451
17:04:47 31 997 241 0 S 0 49 453
17:07:50 31 998 248 2 NW 0 49.4 448
17:10:48 32 998 247 1 NW 0 50.5 450
17:13:47 32 998 247 6 S 0 45.7 448
17:16:47 32 998 244 2 W 0 45.4 456
17:19:50 33 998 247 1 SW 0 43.6 451
17:22:45 34 999 247 1 W 0 43.3 448
17:25:48 35 998 246 1 S 0 44 448
17:28:30 32 998 246 4 S 0 40 454
17:31:49 34 998 247 10 S 0 39.4 456
17:34:48 34 997 247 1 W 0 40.7 445
17:37:48 33 998 231 0 SO 0 42.1 444
17:40:47 31 997 219 1 SW 0 44.1 444
17:43:47 30 998 226 1 SW 0 46.3 451
17:46:50 30 998 229 6 NW 0 47.5 462
17:49:48 29 998 217 3 W 0 48.9 462
17:52:47 29 998 221 0 SO 0 51.7 459
17:55:47 29 998 224 0 SO 0 52.5 454
17:58:47 29 998 203 0 SO 0 53.3 454
18:01:49 28 998 206 6 NW 0 55.3 453
18:04:49 27 998 224 6 W 0 59.4 457
18:07:48 27 998 227 7 W 0 60.3 456
18:10:49 26 998 237 3 SW 0 62 450
18:13:50 26 999 244 1 N 0 64.7 448
18:16:46 27 998 240 3 W 0 64.8 454
18:19:48 27 999 240 3 SW 0 62.9 463
18:22:50 27 998 229 9 W 0 61.7 466
18:25:47 26 998 236 3 W 0 64.1 465
18:28:49 26 999 238 6 W 0 64.9 466
18:31:49 26 998 214 1 NW 0 66.4 468
18:34:49 25 998 200 2 SW 0 66.8 469
18:37:49 25 999 191 2 S 0 67.4 468
18:40:46 25 999 190 4 NW 0 68 474
18:43:48 24 999 189 3 W 0 69.4 477
18:46:48 24 999 189 2 O 0 70.7 489
18:49:49 23 999 196 3 NW 0 72 498
18:52:45 23 999 215 1 SO 0 73.2 506
18:55:47 23 999 215 2 S 0 73.5 515
18:58:50 23 1000 201 0 W 0 74.2 515
19:01:50 23 1000 187 3 SW 0 75.1 524
19:04:47 23 999 173 2 W 0 75.5 538
19:07:49 23 1000 169 4 SW 0 74.9 547
19:10:50 23 1000 168 1 S 0 75.3 556
19:13:49 22 1000 164 0 NW 0 75.6 559
19:16:47 22 1000 141 0 W 0 76 559
19:19:49 22 1000 115 2 S 0 76.4 567
19:22:49 22 1001 110 0 SW 0 76.9 577
19:25:50 22 1000 132 3 W 0 77.1 582
19:28:49 22 1001 145 1 NW 0 77.5 586
19:31:50 21 1000 165 0 W 0 78.2 588
19:34:48 21 1001 183 2 S 0 78.2 600
19:37:48 21 999 189 0 W 0 79.1 603
19:40:49 21 1000 185 2 N 0 79.4 609
19:43:49 21 1000 188 0 S 0 79.7 612
19:46:48 21 1000 173 1 N 0 79.8 622
19:49:49 21 1001 159 5 W 0 79.9 623
19:52:49 21 1000 167 2 S 0 79.9 629
19:55:49 21 1000 172 1 W 0 79.9 627
19:58:50 21 1000 181 0 NW 0 80.4 632
20:01:51 21 1000 183 0 NW 0 80.8 640
20:04:47 21 1001 182 2 W 0 81.3 656
20:07:49 20 1000 169 3 NW 0 81.9 655
20:10:48 20 1000 134 3 W 0 82.7 653
20:13:52 20 1001 132 3 SO 0 83.2 659
20:16:48 20 1000 129 4 W 0 82.9 666
20:19:47 20 1001 131 1 S 0 83 660
20:22:49 20 1001 162 2 NW 0 83.7 658
20:25:49 20 1001 181 2 W 0 84.2 656
20:28:47 20 1001 178 1 S 0 84.5 659
20:31:50 20 1000 171 1 W 0 84.8 653
20:34:49 20 1001 159 3 W 0 84.7 648
20:37:49 20 1001 153 1 W 0 84.3 630
20:40:48 20 1001 150 4 W 0 84.5 630
20:43:49 19 1001 118 3 NW 0 85.2 630
20:46:50 19 1001 112 2 SO 0 86 630
20:49:50 19 1002 100 1 SO 0 86.4 633
20:52:49 19 1001 92 1 NW 0 86.4 633
20:55:50 19 1002 101 1 NW 0 87 630
20:58:48 19 1001 77 0 NO 0 86.8 629
21:01:47 19 1002 71 1 N 0 87.1 644
21:04:47 19 1002 83 0 SW 0 87.3 647
21:07:52 19 1002 103 1 NW 0 86.9 664
21:10:52 19 1002 100 2 SW 0 87 668
21:13:48 19 1001 96 0 S 0 86.8 676
21:16:48 19 1002 90 1 N 0 86.4 677
21:19:49 19 1002 90 0 SW 0 86.3 689
21:22:51 19 1002 72 2 SW 0 86.2 682
21:25:50 19 1002 70 1 O 0 86.4 686
21:28:50 19 1002 64 3 W 0 87 683
21:31:48 19 1002 58 5 W 0 87.4 693
21:34:49 19 1002 47 2 W 0 87.5 704
21:37:48 19 1002 51 1 S 0 87.7 711
21:40:49 19 1002 65 3 NW 0 87.9 711
21:43:49 19 1002 64 4 W 0 88.4 707
21:46:48 18 1002 56 1 SW 0 88.4 709
21:49:50 18 1002 47 5 SW 0 88.3 703
21:52:48 18 1002 39 1 W 0 88.6 708
21:55:49 18 1002 33 0 W 0 89 707
21:58:50 18 1002 26 2 SW 0 89.3 715
22:01:48 18 1002 20 3 SO 0 89.3 705
22:04:46 18 1002 15 2 N 0 89.7 713
22:07:47 18 1002 11 0 NW 0 90 716
22:10:47 18 1002 9 0 S 0 90 723
22:13:50 18 1002 5 2 NW 0 90.5 729
22:16:46 18 1002 4 2 W 0 90.8 729
22:19:48 18 1002 0 3 W 0 90.8 729
22:22:48 17 1002 0 2 NW 0 90.8 737
22:25:47 17 1002 0 2 NW 0 91.1 747
22:28:49 17 1002 0 0 N 0 91.1 755
22:31:47 17 1002 0 0 N 0 91.3 749
22:34:44 17 1002 0 0 N 0 91.4 755
22:37:49 17 1002 0 0 SO 0 91.6 756
22:40:46 17 1002 0 0 N 0 92 759
22:43:48 17 1002 0 0 S 0 92.1 755
22:46:47 17 1002 0 0 SO 0 92 755
22:49:48 17 1002 0 0 SW 0 91.8 759
22:52:48 17 1002 0 0 N 0 92.2 772
22:55:47 17 1002 0 0 N 0 92.3 770
22:58:47 17 1002 0 0 SO 0 92.3 770
23:01:47 17 1002 0 0 S 0 92.4 767
23:04:47 17 1002 0 2 W 0 92.7 764
23:07:47 17 1002 0 0 W 0 93.4 764
23:10:46 17 1002 0 0 W 0 93.3 770
23:13:47 17 1002 0 0 W 0 93.2 772
23:16:47 17 1002 0 0 W 0 93.5 779
23:19:48 17 1002 0 0 W 0 93.9 777
23:22:46 17 1002 0 0 W 0 93.9 779
23:25:48 17 1002 0 0 W 0 93.7 780
23:28:46 17 1002 0 0 W 0 93.4 785
23:31:49 17 1002 0 0 SO 0 93.2 785
23:34:47 17 1002 0 0 S 0 93.2 787
23:37:49 16 1002 0 0 S 0 93.2 776
23:40:50 16 1002 0 2 SW 0 93.7 773
23:43:45 16 1002 0 0 O 0 93.8 776
23:46:47 16 1002 0 0 SW 0 93.9 769
23:49:48 16 1002 0 0 S 0 94 758
23:52:46 16 1002 0 0 S 0 94.1 750
23:55:46 16 1002 0 1 SO 0 94.2 755
23:58:47 16 1002 0 0 SO 0 94.2 758

Letzte Änderung : 22-Jul-2022
Copyright Jens Köhler, Wolfsburg, Obere Dorfstraße 10d